Content
SEND FEEDBACK

Daily
Averages
Monthly
Summary
United States of America

ST. LOUIS, MISSOURI


Home > North America > United States > Missouri
Elevation: 535 feet     Latitude: 38 45N     Longitude: 090 22W

WEATHER
 
SELECT A DAY
Number of Records: 194,344;   Date Range: 1/1/95 - 4/16/14
 
SHARE

PRINT THIS DATA

[ ← Previous Day ]
WEATHER ALMANAC - OCTOBER 22, 2013
[ Next Day → ]
[ °C ]   °F
Weather ElementAverageHighLow
Temperature46.3 °F61 °F (3:54 pm)33.1 °F (2:54 am)
Dewpoint37.3 °F46.4 °F (6:46 pm)30.9 °F (1:54 am)
Humidity73 %93 % (6:54 am)47 % (12:54 pm)
Barometer29.96 in30.07 in (1:54 am)29.81 in (3:54 pm)
Wind Speed8.1 mph23 mph (8:05 pm)
Wind Gust27.6 mph (8:05 pm)
Weather ElementAverage
Visibility9.9 mi
Wind DirectionSSW (188.4 °)

Weather ElementTotal
Precipitation---
Heating Degree Days18 (Base 65)
Averaged from 25 records on October 22, 2013
WEATHER CONDITIONS BREAKOUT
WIND DIRECTION BREAKOUT
WEATHER BY HOUR - OCTOBER 22, 2013
[ °C ]   °F
Local TimeTemperatureDewpointHumidityBarometerVisibilityWind DirectionWind SpeedGust SpeedPrecipitationEventsConditions
1:54 AM34.0 °F30.9 °F89 %30.07 in10.0 miCalmClear
2:54 AM33.1 °F30.9 °F92 %30.06 in8.0 miCalmClear
3:54 AM33.1 °F30.9 °F92 %30.05 in10.0 miCalmClear
4:54 AM34.0 °F32.0 °F92 %30.04 in10.0 miCalmMostly Cloudy
5:54 AM35.1 °F33.1 °F92 %30.04 in10.0 miCalmOvercast
6:54 AM36.0 °F34.0 °F93 %30.04 in10.0 miCalmMostly Cloudy
7:54 AM37.9 °F35.1 °F89 %30.03 in10.0 miCalmOvercast
8:54 AM41.0 °F37.0 °F86 %30.02 in10.0 miCalm0.00 inOvercast
9:54 AM46.9 °F35.1 °F63 %29.99 in10.0 miSouth (180°)8.1 mphMostly Cloudy
10:54 AM51.1 °F36.0 °F56 %29.96 in10.0 miSSW (210°)5.8 mphOvercast
11:54 AM57.0 °F37.9 °F49 %29.92 in10.0 miSouth (180°)5.8 mph0.00 inRainLight Rain
12:54 PM57.0 °F37.0 °F47 %29.88 in10.0 miSW (230°)11.5 mph0.00 inOvercast
1:54 PM57.9 °F37.9 °F47 %29.84 in10.0 miSSW (210°)12.7 mph21.9 mphOvercast
2:54 PM59.0 °F39.0 °F48 %29.83 in10.0 miSW (230°)17.3 mph23.0 mph0.00 inMostly Cloudy
3:54 PM61.0 °F41.0 °F48 %29.81 in10.0 miWSW (250°)9.2 mphMostly Cloudy
4:54 PM55.0 °F46.0 °F72 %29.83 in10.0 miWSW (250°)13.8 mph25.3 mph0.00 inOvercast
5:54 PM53.1 °F45.0 °F74 %29.87 in10.0 miNW (310°)9.2 mphMostly Cloudy
6:46 PM51.8 °F46.4 °F82 %29.88 in10.0 miNNW (330°)10.4 mphMostly Cloudy
6:54 PM51.1 °F46.0 °F83 %29.90 in10.0 miNNW (340°)10.4 mphMostly Cloudy
7:54 PM50.0 °F42.1 °F74 %29.94 in10.0 miNW (320°)12.7 mph20.7 mphMostly Cloudy
8:05 PM48.2 °F39.2 °F71 %29.93 in10.0 miNW (320°)23.0 mph27.6 mphMostly Cloudy
8:54 PM46.0 °F37.0 °F71 %29.97 in10.0 miNNW (330°)15.0 mph26.5 mphMostly Cloudy
9:54 PM44.1 °F35.1 °F71 %29.99 in10.0 miNNW (340°)16.1 mphMostly Cloudy
10:54 PM43.0 °F34.0 °F71 %30.01 in10.0 miNNW (340°)11.5 mphOvercast
11:54 PM42.1 °F34.0 °F73 %30.01 in10.0 miNNW (340°)10.4 mphOvercast
Hourly data recorded from KSUS, located 0.00 miles away from St. Louis, Missouri







STORIES FROM OUR PARTNERS